[[{"header":{"parameterUnit":"m.s-1","parameterCategory":1,"la1":30.2991,"la2":30.254,"lo1":-89.0895,"lo2":-89.0444,"dy":0.0017,"dx":0.0017,"nx":28,"ny":28,"refTime":"2024-06-19T09:00:00:Z","depth":0,"parameterNumber":2,"parameterNumberName":"U-component_of_WINDS"},"data":[0,0,0,0,0,0,0,0,0,0,0,0,0,0,0,0,0,0,0,0,0,0,0,0,0,0,0,0,0,0,0,0,0,0,0,0,0,0,0,0,0,0,0,0,0,0,0,0,0,0,0,0,0,0,0,0,0,0,-8.7542,-8.7544,0,-8.7706,-8.7708,-8.771,-8.7553,-8.7547,-8.7541,-8.7535,-8.7699,-8.7709,-8.7719,0,0,0,0,0,0,0,0,0,0,0,0,0,-8.7089,-8.7098,-8.7542,-8.7544,-8.7546,-8.7706,-8.7708,-8.771,-8.7554,-8.7547,-8.7539,-8.7532,-8.7696,-8.7708,-8.772,0,0,0,0,0,0,0,0,0,0,0,0,0,-8.7273,-8.7101,-8.7541,-8.7487,-8.7484,-8.7705,-8.7708,-8.7711,-8.7556,-8.7546,-8.7537,-8.7528,-8.7692,-8.7707,-8.7722,-8.8003,0,0,-8.7769,-8.7775,0,0,0,0,0,0,0,0,-8.7263,-8.729,-8.7493,-8.7492,-8.7488,-8.76,-8.7608,-8.7809,-8.7558,-8.7529,-8.7535,-8.7524,-8.7673,-8.769,-8.7741,-8.8011,-8.8018,-8.777,-8.7779,-8.7786,-8.779,0,0,0,0,0,0,0,-8.725,-8.7282,-8.7606,-8.7496,-8.7493,-8.7454,-8.7469,-8.7646,-8.7651,-8.753,-8.7519,-8.7541,-8.767,-8.7727,-8.7744,-8.8021,-8.777,-8.7783,-8.7793,-8.7799,-8.8529,-8.8539,0,0,0,0,0,0,-8.7244,-8.7272,-8.7601,-8.7611,-8.735,-8.7469,-8.7487,-8.7573,-8.7649,-8.7652,-8.7549,-8.7533,-8.7705,-8.7726,-8.7749,-8.8082,-8.7786,-8.78,-8.7809,-8.8519,-8.8531,-8.8542,0,0,0,0,0,0,-8.7235,-8.7275,-8.7595,-8.7439,-8.7477,-8.7487,-8.7585,-8.7581,-8.7637,-8.7663,-8.7663,-8.7606,-8.7698,-8.7727,-8.7941,-8.8086,-8.7807,-8.7821,-8.8507,-8.8523,-8.8537,-8.8753,0,0,0,0,0,0,-8.7222,-8.7272,-8.738,-8.7443,-8.7486,-8.7786,-8.7594,-8.7591,-8.7665,-8.7646,-8.7716,-8.7719,-8.7693,-8.7919,-8.7957,-8.8102,-8.7833,-8.8494,-8.8514,-8.8532,-8.8733,-8.8773,-8.8808,0,0,0,0,0,-8.7207,-8.7434,-8.7386,-8.7427,-8.7621,-8.7795,-8.7819,-8.7786,-8.7677,-8.7785,-8.7801,-8.7717,-8.8065,-8.7943,-8.7983,-8.8135,-8.8484,-8.8508,-8.853,-8.8715,-8.8765,-8.8807,0,0,0,0,0,0,-8.7386,-8.7441,-8.7389,-8.7643,-8.7716,-8.7768,-8.7903,-8.784,-8.7944,-8.7922,-8.7875,-8.7893,-8.8119,-8.8148,-8.8012,-8.8411,-8.8257,-8.8289,-8.8383,-8.8431,-8.8468,-8.8455,-8.7845,0,0,0,0,0,-8.7456,-8.7594,-8.7633,-8.7854,-8.7893,-8.7893,-8.7967,-8.7936,-8.8008,-8.8038,-8.8069,-8.8142,-8.8268,-8.8351,-8.8468,-8.8737,-8.8749,-8.8861,-8.8899,-8.893,-8.8958,-8.9101,-8.9151,-8.8618,-8.8618,-8.8617,0,0,-8.76,-8.7647,-8.7737,-8.7891,-8.7944,-8.8086,-8.7919,-8.8077,-8.8182,-8.8061,-8.8265,-8.8292,-8.837,-8.8612,-8.8721,-8.8644,-8.9108,-8.896,-8.8984,-8.8995,-8.913,-8.918,-8.9225,-8.8634,-8.8631,-8.8628,0,0,-8.7935,-8.7986,-8.8175,-8.8231,-8.8313,-8.8312,-8.8357,-8.842,-8.8433,-8.8638,-8.855,-8.8673,-8.8891,-8.895,-8.9008,-8.9368,-8.9293,-8.9408,-8.9605,-8.9745,-8.9787,-8.9824,-8.995,-8.9997,-8.9436,-8.9436,-8.9436,0,-8.8104,-8.8316,-8.8279,-8.8444,-8.8514,-8.8413,-8.8603,-8.8659,-8.8775,-8.8825,-8.8738,-8.9009,-8.9055,-8.9309,-8.9397,-8.9448,-8.9498,-8.9398,-8.9784,-8.9821,-8.9855,-8.9975,-9.0023,-8.9449,-8.9448,-8.9446,-8.9445,0,-8.8519,-8.8668,-8.881,-8.8926,-8.9012,-8.9189,-8.9177,-8.9269,-8.9231,-8.9238,-8.9447,-8.9499,-8.9624,-8.9682,-8.9646,-8.9932,-8.9882,-8.9791,-8.9634,-8.9919,-9.0031,-9.0077,-8.9468,-8.9463,-8.9459,-8.9456,0,0,-8.897,-8.9064,-8.9117,-8.9168,-8.9252,-8.9366,-8.9538,-8.9662,-8.974,-8.9824,-8.9966,-9.0153,-9.007,-9.0136,-9.0106,-9.0229,-9.0509,-9.0122,-9.0123,-9.0191,-9.0826,-9.0893,-9.0947,-9.0462,-9.047,-9.0477,-9.0819,0,-8.9306,-8.9606,-8.9578,-8.9862,-8.9998,-8.9905,-9.0055,-9.0122,-9.0134,-9.025,-9.0262,-9.0395,-9.0276,-9.0315,-9.0433,-9.045,-9.0636,-9.0426,-9.0591,-9.0597,-9.0572,-9.1005,-9.1076,-9.1396,-9.0863,-9.087,-9.0875,0,-8.9738,-8.9839,-9.0137,-9.0201,-9.0257,-9.0392,-9.0503,-9.0616,-9.069,-9.069,-9.0766,-9.0714,-9.0886,-9.0728,-9.0963,-9.0821,-9.0887,-9.0906,-9.0917,-9.0929,-9.0752,-9.1027,-9.1498,-9.1545,-9.0944,-9.0939,-9.0934,0,-9.0035,-9.0245,-9.045,-9.0497,-9.0577,-9.0674,-9.0711,-9.0776,-9.0853,-9.095,-9.0999,-9.1115,-9.1178,-9.1268,-9.1249,-9.1136,-9.1489,-9.1329,-9.1492,-9.1493,-9.1568,-9.1563,-9.2054,-9.1616,-9.1615,-9.1614,-9.1613,0,-9.0413,-9.0598,-9.0585,-9.0711,-9.0916,-9.0882,-9.1085,-9.111,-9.117,-9.1298,-9.1225,-9.1346,-9.1315,-9.1435,-9.1422,-9.1617,-9.1647,-9.165,-9.1644,-9.1656,-9.1655,-9.1696,-9.1673,-9.1627,-9.1624,-9.1621,-9.1619,0,-9.0778,-9.0777,-9.0994,-9.1052,-9.1071,-9.1219,-9.1268,-9.1386,-9.1393,-9.1557,-9.1593,-9.1603,-9.1741,-9.1732,-9.1887,-9.1878,-9.2119,-9.2088,-9.2095,-9.2087,-9.2249,-9.2234,-9.2782,-9.2851,-9.2371,-9.2375,-9.2379,0,-9.1017,-9.1158,-9.1232,-9.1314,-9.1358,-9.149,-9.1568,-9.1541,-9.1624,-9.172,-9.1827,-9.1959,-9.2062,-9.2287,-9.2307,-9.2426,-9.2395,-9.2579,-9.2412,-9.2419,-9.2395,-9.2386,-9.2399,-9.2611,-9.2616,-9.2621,-9.2624,0,-9.1442,-9.1435,-9.1551,-9.1668,-9.1763,-9.1854,-9.1935,-9.2006,-9.1987,-9.2085,-9.2226,-9.2307,-9.2466,-9.2597,-9.271,-9.2747,-9.2683,-9.2678,-9.2721,-9.2733,-9.273,-9.2732,-9.2182,-9.2664,-9.266,-9.2657,-9.2655,-9.2653,-9.175,-9.187,-9.1942,-9.2073,-9.2133,-9.2212,-9.2325,-9.2347,-9.2465,-9.2593,-9.257,-9.2728,-9.2798,-9.2944,-9.2992,-9.3114,-9.3048,-9.3111,-9.3127,-9.3142,-9.316,-9.2713,-9.3135,-9.3134,-9.3133,-9.3132,-9.3131,0,-9.2169,-9.2211,-9.2333,-9.245,-9.2554,-9.2487,-9.2575,-9.2665,-9.2806,-9.2878,-9.2982,-9.3143,-9.3271,-9.3302,-9.3424,-9.3516,-9.3489,-9.3548,-9.354,-9.3549,-9.3213,-9.3162,-9.3568,-9.3568,-9.3568,-9.3567,-9.3567,-9.3567,-9.2399,-9.2599,-9.2601,-9.2829,-9.2869,-9.3024,-9.308,-9.3152,-9.3209,-9.3393,-9.3499,-9.3519,-9.3575,-9.37,-9.3814,-9.382,-9.3867,-9.3938,-9.3932,-9.3617,-9.3573,-9.3531,-9.3483,-9.3949,-9.3949,-9.4256,-9.4259,-9.4262]},{"header":{"parameterUnit":"m.s-1","parameterCategory":1,"la1":30.2991,"la2":30.254,"lo1":-89.0895,"lo2":-89.0444,"dy":0.0017,"dx":0.0017,"nx":28,"ny":28,"refTime":"2024-06-19T09:00:00:Z","depth":0,"parameterNumber":3,"parameterNumberName":"V-component_of_WINDS"},"data":[0,0,0,0,0,0,0,0,0,0,0,0,0,0,0,0,0,0,0,0,0,0,0,0,0,0,0,0,0,0,0,0,0,0,0,0,0,0,0,0,0,0,0,0,0,0,0,0,0,0,0,0,0,0,0,0,0,0,-0.6232,-0.6232,0,-0.6219,-0.6219,-0.6219,-0.6287,-0.6289,-0.6291,-0.6293,-0.6279,-0.6277,-0.6275,0,0,0,0,0,0,0,0,0,0,0,0,0,-0.6313,-0.6311,-0.6232,-0.6232,-0.6232,-0.6219,-0.6219,-0.6219,-0.6287,-0.6289,-0.6291,-0.6294,-0.628,-0.6277,-0.6275,0,0,0,0,0,0,0,0,0,0,0,0,0,-0.6287,-0.6311,-0.6232,-0.6264,-0.6267,-0.6219,-0.6219,-0.6219,-0.6286,-0.6289,-0.6292,-0.6295,-0.6281,-0.6278,-0.6274,-0.6195,0,0,-0.6264,-0.6263,0,0,0,0,0,0,0,0,-0.6288,-0.6284,-0.626,-0.6262,-0.6265,-0.6258,-0.6243,-0.6211,-0.6285,-0.6279,-0.6293,-0.6296,-0.627,-0.6267,-0.6259,-0.6194,-0.6194,-0.6264,-0.6262,-0.6261,-0.626,0,0,0,0,0,0,0,-0.629,-0.6285,-0.6227,-0.6259,-0.6262,-0.6278,-0.6278,-0.6237,-0.6258,-0.628,-0.6285,-0.6282,-0.6272,-0.6262,-0.6259,-0.6194,-0.6264,-0.6261,-0.6259,-0.6258,-0.6059,-0.6055,0,0,0,0,0,0,-0.6288,-0.6286,-0.6227,-0.6226,-0.6284,-0.6274,-0.6274,-0.6257,-0.6258,-0.6262,-0.628,-0.6285,-0.6266,-0.6263,-0.6259,-0.6162,-0.6261,-0.6258,-0.6256,-0.6062,-0.6058,-0.6054,0,0,0,0,0,0,-0.6289,-0.6282,-0.6228,-0.6257,-0.6252,-0.627,-0.625,-0.6255,-0.6245,-0.6258,-0.6262,-0.6265,-0.6268,-0.6263,-0.6209,-0.6162,-0.6256,-0.6253,-0.6066,-0.6061,-0.6056,-0.597,0,0,0,0,0,0,-0.6291,-0.6282,-0.6253,-0.6256,-0.625,-0.6179,-0.6248,-0.6253,-0.6239,-0.6247,-0.6246,-0.6249,-0.627,-0.6214,-0.6206,-0.616,-0.6251,-0.607,-0.6064,-0.6058,-0.5977,-0.5962,-0.595,0,0,0,0,0,-0.6294,-0.623,-0.6251,-0.6244,-0.6214,-0.6176,-0.6173,-0.6198,-0.6235,-0.6205,-0.6213,-0.6249,-0.6169,-0.6208,-0.6199,-0.6151,-0.6073,-0.6065,-0.6058,-0.5983,-0.5965,-0.595,0,0,0,0,0,0,-0.6222,-0.6231,-0.6255,-0.619,-0.6182,-0.6188,-0.6151,-0.6179,-0.616,-0.6168,-0.62,-0.62,-0.6139,-0.6141,-0.6183,-0.6072,-0.6128,-0.6118,-0.6073,-0.6056,-0.6043,-0.6043,-0.6248,0,0,0,0,0,-0.6198,-0.6168,-0.6178,-0.612,-0.6114,-0.6133,-0.6118,-0.6138,-0.613,-0.6127,-0.6132,-0.6123,-0.6095,-0.6077,-0.6053,-0.5978,-0.5977,-0.5941,-0.5927,-0.5916,-0.5907,-0.5863,-0.5846,-0.603,-0.603,-0.603,0,0,-0.615,-0.6151,-0.613,-0.6105,-0.6101,-0.6066,-0.613,-0.6092,-0.6066,-0.6122,-0.6069,-0.6072,-0.6064,-0.5998,-0.597,-0.5998,-0.5856,-0.5907,-0.5898,-0.5894,-0.5853,-0.5836,-0.582,-0.6025,-0.6026,-0.6026,0,0,-0.6042,-0.6042,-0.5991,-0.5985,-0.5977,-0.599,-0.5977,-0.5979,-0.5982,-0.593,-0.597,-0.594,-0.5893,-0.5884,-0.5874,-0.5759,-0.579,-0.5751,-0.568,-0.5637,-0.5622,-0.5609,-0.5564,-0.5548,-0.5742,-0.5741,-0.5741,0,-0.5983,-0.5933,-0.5962,-0.592,-0.5906,-0.5954,-0.5901,-0.5894,-0.5879,-0.5867,-0.5899,-0.5838,-0.5837,-0.5767,-0.5739,-0.573,-0.5715,-0.575,-0.5622,-0.5609,-0.5598,-0.5555,-0.5538,-0.5736,-0.5737,-0.5738,-0.5738,0,-0.5857,-0.5822,-0.5782,-0.5764,-0.5746,-0.57,-0.5719,-0.5698,-0.5719,-0.5727,-0.5672,-0.5671,-0.5646,-0.5631,-0.5653,-0.5563,-0.558,-0.5617,-0.5672,-0.5575,-0.5535,-0.5519,-0.5729,-0.5731,-0.5733,-0.5734,0,0,-0.5705,-0.5701,-0.5685,-0.5676,-0.5669,-0.5642,-0.5596,-0.557,-0.5549,-0.5537,-0.5497,-0.5454,-0.5486,-0.5474,-0.5495,-0.5457,-0.5361,-0.5498,-0.5498,-0.5469,-0.5257,-0.5227,-0.5208,-0.5382,-0.5379,-0.5377,-0.5257,0,-0.5596,-0.5517,-0.5539,-0.5459,-0.5424,-0.5468,-0.5427,-0.5418,-0.5424,-0.5395,-0.5403,-0.537,-0.5417,-0.5409,-0.5375,-0.538,-0.5318,-0.539,-0.5342,-0.534,-0.5339,-0.5188,-0.5157,-0.5043,-0.5242,-0.5239,-0.5237,0,-0.5459,-0.5438,-0.5354,-0.5349,-0.5336,-0.5299,-0.5274,-0.5247,-0.5236,-0.5243,-0.5227,-0.5254,-0.5207,-0.5264,-0.5198,-0.5245,-0.5228,-0.5227,-0.5223,-0.5217,-0.528,-0.5174,-0.5008,-0.4989,-0.5214,-0.5216,-0.5218,0,-0.535,-0.5302,-0.5244,-0.5235,-0.523,-0.5201,-0.5198,-0.519,-0.5172,-0.5151,-0.5138,-0.5113,-0.5098,-0.5076,-0.5095,-0.5136,-0.5023,-0.5084,-0.5025,-0.5024,-0.4997,-0.4997,-0.4821,-0.4992,-0.4992,-0.4992,-0.4993,0,-0.5224,-0.5169,-0.5194,-0.5158,-0.5097,-0.5124,-0.5063,-0.5064,-0.5056,-0.5019,-0.5057,-0.5022,-0.505,-0.5017,-0.5032,-0.4971,-0.4965,-0.4967,-0.4971,-0.4962,-0.4961,-0.4948,-0.4955,-0.4988,-0.4989,-0.499,-0.499,0,-0.5091,-0.5106,-0.5045,-0.5043,-0.5042,-0.4996,-0.4995,-0.496,-0.4969,-0.4922,-0.4912,-0.4925,-0.4887,-0.4904,-0.4866,-0.4875,-0.4796,-0.4812,-0.4799,-0.4801,-0.474,-0.4744,-0.4547,-0.452,-0.4711,-0.4709,-0.4708,0,-0.5008,-0.4967,-0.496,-0.4937,-0.4931,-0.4895,-0.4876,-0.49,-0.4878,-0.486,-0.4827,-0.4792,-0.4766,-0.4703,-0.4708,-0.4678,-0.4691,-0.4624,-0.4687,-0.4677,-0.4685,-0.4685,-0.4679,-0.4611,-0.4608,-0.4607,-0.4605,0,-0.4857,-0.4866,-0.4836,-0.4807,-0.4783,-0.4762,-0.4744,-0.4724,-0.4747,-0.472,-0.4681,-0.466,-0.4619,-0.4583,-0.4555,-0.4551,-0.458,-0.4586,-0.457,-0.4558,-0.4549,-0.4548,-0.476,-0.459,-0.4591,-0.4592,-0.4593,-0.4594,-0.4744,-0.4707,-0.4695,-0.466,-0.4649,-0.463,-0.4596,-0.4599,-0.4567,-0.4534,-0.4551,-0.4505,-0.4492,-0.4458,-0.4449,-0.4412,-0.4438,-0.4416,-0.441,-0.4403,-0.4392,-0.4558,-0.4408,-0.4408,-0.4408,-0.4409,-0.4409,0,-0.4591,-0.4585,-0.4552,-0.4524,-0.4496,-0.4527,-0.4508,-0.4481,-0.4439,-0.4425,-0.4397,-0.435,-0.4315,-0.4316,-0.4283,-0.4253,-0.4265,-0.4243,-0.4243,-0.424,-0.4373,-0.4388,-0.4233,-0.4233,-0.4233,-0.4233,-0.4233,-0.4233,-0.4508,-0.4445,-0.4452,-0.4384,-0.4378,-0.4332,-0.4318,-0.43,-0.4288,-0.4234,-0.4204,-0.4205,-0.4196,-0.4162,-0.4129,-0.4131,-0.4114,-0.4086,-0.4092,-0.4215,-0.4232,-0.4249,-0.4263,-0.4083,-0.4083,-0.3962,-0.3961,-0.396]}]]